Voltar ao catálogo

DELTA 1 DEB

AtivoSSO
NORAD 7064·DEBRIS·🇺🇸 United States

Lançado Nov 6, 1973 de Vandenberg Space Force Base

Loading…

Próximas Passagens (próximas 24 horas)

TLE

AtualizadoSource: Space-Track

Época: Sep 14, 2026, 01:24 UTC

1 07064U 73086BG  26257.05855729 -.00000003  00000-0  19352-3 0  9991
2 07064 101.6563 118.0206 0181622 173.6469 350.7874 12.75488599457485

Acompanhe DELTA 1 DEB em tempo real com AllMySat

Download on the App Store